{"data":{"norad_id":47266,"epoch":"2026-05-25T03:05:55.961088Z","epoch_age_seconds":74542,"freshness":"FRESH","line1":"1 47266U 20100J   26145.12911992  .00000012  00000+0 -32336-5 0  9995","line2":"2 47266  87.8950 355.2580 0001626  89.8721 270.2594 13.12441352261703","mean_motion":13.12441352,"eccentricity":0.0001626,"inclination_deg":87.895,"raan_deg":355.258,"arg_perigee_deg":89.8721,"mean_anomaly_deg":270.2594,"bstar":-3.2336e-6,"rev_number":26170,"period_min":109.7191884274,"perigee_km":1212.4952088033,"apogee_km":1214.9640838367,"semimajor_km":7591.86664632,"source":"CELESTRAK","updated_at":"2026-05-25T13:38:22.380693Z"}}